Flag for Canada Weather past 2 weeks in Oakville, Ontario, Canada

Now
59 °F

Cool.


Feels Like: 59 °F
Forecast: 54 / 72 °F
Wind: 5 mph from Northwest

Location: Burlington Piers

Current Time: Aug 28, 2015 at 5:38:25 AM

Latest Report: Aug 28, 2015 at 4:00 AM


Visibility: N/A

Pressure: 30.15 "Hg

Humidity: 76%

Dew point: 52 °F

Location of OakvilleLocation

Historic Weather in Oakville — Graph

°F

Oakville temperature yesterday

Maximum temperature yesterday: 69 °F (at 6:00 PM)
Minimum temperature yesterday: 59 °F (at 6:00 AM)
Average temperature yesterday: 64 °F

Past Weeks' High & Low Weather Summary

 TemperatureHumidityPressure
High87 °F (Aug 17, 3:00 PM)97% (Aug 19, 7:00 AM)30.20 "Hg (Aug 19, 7:00 AM)
Low59 °F (Aug 13, 6:00 AM)43% (Aug 24, 2:00 PM)29.70 "Hg (Aug 20, 6:00 AM)
Average70 °F72%29.99 "Hg
* Reported Aug 13 4:00 AM — Aug 28 4:00 AM, Oakville, Weather by CustomWeather, © 2015

Note: Actual official high and low records may vary slightly from our data, if they occured in-between our weather recording intervals... More about our weather records

Advertising

Oakville weather history for previous 24 hours

 ConditionsComfort  
Time TempWeatherWind HumidityBarometerVisibility
4:00 AM
Fri, Aug 28
59 °FCool.5 mph76%30.15 "HgN/A
3:00 AM62 °FCool.5 mph68%30.15 "HgN/A
2:00 AM62 °FCool.1 mph73%30.16 "HgN/A
1:00 AM62 °FMild.No wind70%30.17 "HgN/A
12:00 AM62 °FCool.2 mph72%30.17 "HgN/A
11:00 PM
Thu, Aug 27
64 °FMild.2 mph69%30.17 "HgN/A
10:00 PM65 °FMild.2 mph56%30.16 "HgN/A
9:00 PM66 °FMild.5 mph58%30.16 "HgN/A
8:00 PM66 °FMild.5 mph63%30.14 "HgN/A
7:00 PM66 °FMild.3 mph61%30.14 "HgN/A
6:00 PM69 °FMild.3 mph52%30.13 "HgN/A
5:00 PM67 °FMild.5 mph55%30.11 "HgN/A
4:00 PM68 °FMild.7 mph53%30.13 "HgN/A
3:00 PM66 °FMild.7 mph58%30.14 "HgN/A
2:00 PM65 °FMild.7 mph60%30.15 "HgN/A
1:00 PM65 °FMild.7 mph63%30.15 "HgN/A
12:00 PM65 °FMild.3 mph62%30.15 "HgN/A
11:00 AM64 °FMild.1 mph66%30.14 "HgN/A
10:00 AM63 °FMild.5 mph70%30.14 "HgN/A
9:00 AM61 °FCool.5 mph75%30.14 "HgN/A
8:00 AM60 °FCool.3 mph78%30.14 "HgN/A
7:00 AM60 °FCool.2 mph80%30.11 "HgN/A
6:00 AM59 °FCool.3 mph81%30.10 "HgN/A
5:00 AM60 °FCool.7 mph80%30.09 "HgN/A
Weather by CustomWeather, © 2015

See weather overviewHow to use our weather pages